,,,PA_Meas_PMT16A,,PR_Meas_QMR101_102,,RH_Meas_QMH101,,SR_Meas_QMS101,,TA_Meas_QMH101,,GenWind,,GenWind,
date,time,status,PA,status,PR,status,RH,status,SR,status,TA,status,DirAvg,status,SpdAvg,
2009-05-23, 00:00:05,VALID,1000.71,VALID,0,VALID,92.8067,VALID,0,VALID,23.797,VALID,73,VALID,0.234375,
2009-05-23, 00:01:05,VALID,1000.67,VALID,0,VALID,92.8143,VALID,0.112286,VALID,23.8378,VALID,73,VALID,0.0738281,
2009-05-23, 00:02:05,VALID,1000.67,VALID,0,VALID,92.7609,VALID,0,VALID,23.7775,VALID,73,VALID,0.0722656,
2009-05-23, 00:03:05,VALID,1000.64,VALID,0,VALID,92.7914,VALID,0,VALID,23.7793,VALID,73,VALID,0,
2009-05-23, 00:04:05,VALID,1000.65,VALID,0,VALID,92.7914,VALID,0,VALID,23.7384,VALID,73,VALID,0,
2009-05-23, 00:05:05,VALID,1000.65,VALID,0,VALID,92.8983,VALID,0,VALID,23.7597,VALID,73,VALID,0,
2009-05-23, 00:06:05,VALID,1000.63,VALID,0,VALID,92.9593,VALID,0,VALID,23.7597,VALID,79,VALID,0.0816406,
2009-05-23, 00:07:05,VALID,1000.63,VALID,0,VALID,92.8601,VALID,0,VALID,23.7597,VALID,162,VALID,0.632031,
2009-05-23, 00:08:05,VALID,1000.65,VALID,0,VALID,92.3947,VALID,0,VALID,23.7793,VALID,162,VALID,0.902734,
2009-05-23, 00:09:05,VALID,1000.6,VALID,0,VALID,91.8835,VALID,0,VALID,23.8396,VALID,161,VALID,0.663672,
2009-05-23, 00:10:05,VALID,1000.59,VALID,0,VALID,91.3647,VALID,0,VALID,23.8982,VALID,176,VALID,1.09063,
2009-05-23, 00:11:05,VALID,1000.6,VALID,0,VALID,90.8383,VALID,0,VALID,23.9159,VALID,163,VALID,1.2043,
2009-05-23, 00:12:05,VALID,1000.6,VALID,0,VALID,90.4568,VALID,0,VALID,23.9939,VALID,164,VALID,1.15937,
2009-05-23, 00:13:05,VALID,1000.6,VALID,0,VALID,90.0448,VALID,0,VALID,24.0525,VALID,157,VALID,1.30352,
2009-05-23, 00:14:05,VALID,1000.58,VALID,0,VALID,89.8388,VALID,0,VALID,24.072,VALID,167,VALID,1.08789,
2009-05-23, 00:15:05,VALID,1000.55,VALID,0,VALID,89.6633,VALID,0,VALID,24.1324,VALID,153,VALID,0.963281,
2009-05-23, 00:16:05,VALID,1000.51,VALID,0,VALID,89.5946,VALID,0,VALID,24.111,VALID,165,VALID,1.08906,
2009-05-23, 00:17:05,VALID,1000.49,VALID,0,VALID,89.6328,VALID,0,VALID,24.1324,VALID,167,VALID,1.17891,
2009-05-23, 00:18:05,VALID,1000.49,VALID,0,VALID,89.6023,VALID,0,VALID,24.1324,VALID,170,VALID,1.04727,
2009-05-23, 00:19:05,VALID,1000.45,VALID,0,VALID,89.5489,VALID,0,VALID,24.0915,VALID,168,VALID,1.28125,
2009-05-23, 00:20:05,VALID,1000.45,VALID,0,VALID,89.4802,VALID,0,VALID,24.1324,VALID,152,VALID,1.13125,
2009-05-23, 00:21:05,VALID,1000.44,VALID,0,VALID,89.526,VALID,0,VALID,24.1305,VALID,157,VALID,0.703516,
2009-05-23, 00:22:05,VALID,1000.39,VALID,0,VALID,89.4954,VALID,0,VALID,24.1305,VALID,163,VALID,1.03125,
2009-05-23, 00:23:05,VALID,1000.37,VALID,0,VALID,89.3963,VALID,0,VALID,24.1324,VALID,160,VALID,0.846484,
2009-05-23, 00:24:05,VALID,1000.4,VALID,0,VALID,89.4726,VALID,0,VALID,24.1324,VALID,140,VALID,0.446875,
2009-05-23, 00:25:05,VALID,1000.38,VALID,0,VALID,89.4954,VALID,0,VALID,24.1128,VALID,136,VALID,0.6,
2009-05-23, 00:26:05,VALID,1000.36,VALID,0,VALID,89.381,VALID,0,VALID,24.1128,VALID,127,VALID,0.460938,
2009-05-23, 00:27:05,VALID,1000.36,VALID,0,VALID,89.4497,VALID,0,VALID,24.1128,VALID,127,VALID,0.344531,
2009-05-23, 00:28:05,VALID,1000.35,VALID,0,VALID,89.4191,VALID,0,VALID,24.1128,VALID,124,VALID,0.312109,
2009-05-23, 00:29:05,VALID,1000.29,VALID,0,VALID,89.4191,VALID,0,VALID,24.0933,VALID,124,VALID,0.400391,
2009-05-23, 00:30:05,VALID,1000.28,VALID,0,VALID,89.4573,VALID,0,VALID,24.072,VALID,124,VALID,0.0472656,
2009-05-23, 00:31:05,VALID,1000.27,VALID,0,VALID,89.3886,VALID,0,VALID,24.0543,VALID,123,VALID,0.237891,
2009-05-23, 00:32:05,VALID,1000.26,VALID,0,VALID,89.5107,VALID,0,VALID,24.0348,VALID,61,VALID,0.630859,
2009-05-23, 00:33:05,VALID,1000.27,VALID,0,VALID,89.854,VALID,0,VALID,23.9957,VALID,94,VALID,0.935156,
2009-05-23, 00:34:05,VALID,1000.24,VALID,0,VALID,90.0066,VALID,0,VALID,23.9957,VALID,94,VALID,0.652734,
2009-05-23, 00:35:05,VALID,1000.22,VALID,0,VALID,90.2431,VALID,0,VALID,23.9957,VALID,94,VALID,0.558984,
2009-05-23, 00:36:05,VALID,1000.24,VALID,0,VALID,90.2279,VALID,0,VALID,23.9762,VALID,94,VALID,0.499219,
2009-05-23, 00:37:05,VALID,1000.25,VALID,0,VALID,90.3118,VALID,0,VALID,23.9354,VALID,94,VALID,0.453906,
2009-05-23, 00:38:05,VALID,1000.19,VALID,0,VALID,90.35,VALID,0,VALID,23.9567,VALID,94,VALID,0.495313,
2009-05-23, 00:39:05,VALID,1000.16,VALID,0,VALID,90.3194,VALID,0,VALID,23.9372,VALID,82,VALID,0.548828,
2009-05-23, 00:40:05,VALID,1000.13,VALID,0,VALID,90.2431,VALID,0,VALID,23.9177,VALID,63,VALID,0.558203,
2009-05-23, 00:41:05,VALID,1000.14,VALID,0,VALID,90.8306,VALID,0,VALID,23.8963,VALID,46,VALID,0.689062,
2009-05-23, 00:42:05,VALID,1000.17,VALID,0,VALID,90.6857,VALID,0,VALID,23.8786,VALID,38,VALID,0.700781,
2009-05-23, 00:43:05,VALID,1000.14,VALID,0,VALID,90.6399,VALID,0,VALID,23.8786,VALID,38,VALID,0.737891,
2009-05-23, 00:44:05,VALID,1000.12,VALID,0,VALID,90.7696,VALID,0,VALID,23.8396,VALID,38,VALID,0.685547,
2009-05-23, 00:45:05,VALID,1000.12,VALID,0,VALID,90.9146,VALID,0,VALID,23.7793,VALID,38,VALID,0.778516,
2009-05-23, 00:46:05,VALID,1000.08,VALID,0,VALID,91.2808,VALID,0,VALID,23.7616,VALID,38,VALID,0.669922,
2009-05-23, 00:47:05,VALID,1000.06,VALID,0,VALID,91.4944,VALID,0,VALID,23.742,VALID,38,VALID,0.684766,
2009-05-23, 00:48:05,VALID,1000.07,VALID,0,VALID,91.7538,VALID,0,VALID,23.7225,VALID,38,VALID,0.673437,
2009-05-23, 00:49:05,VALID,1000.06,VALID,0,VALID,91.7385,VALID,0,VALID,23.7225,VALID,38,VALID,0.611719,
2009-05-23, 00:50:05,VALID,1000.01,VALID,0,VALID,91.6088,VALID,0,VALID,23.742,VALID,38,VALID,0.5875,
2009-05-23, 00:51:05,VALID,1000.05,VALID,0,VALID,91.8148,VALID,0,VALID,23.7012,VALID,38,VALID,0.447266,
2009-05-23, 00:52:05,VALID,1000.03,VALID,0,VALID,91.7538,VALID,0,VALID,23.7225,VALID,38,VALID,0.501562,
2009-05-23, 00:53:05,VALID,1000.03,VALID,0,VALID,91.7996,VALID,0,VALID,23.7012,VALID,38,VALID,0.646094,
2009-05-23, 00:54:05,VALID,1000.02,VALID,0,VALID,92.0285,VALID,0,VALID,23.742,VALID,38,VALID,0.682422,
2009-05-23, 00:55:05,VALID,1000.02,VALID,0,VALID,92.12,VALID,0,VALID,23.7207,VALID,38,VALID,0.585938,
2009-05-23, 00:56:05,VALID,999.981,VALID,0,VALID,92.0285,VALID,0,VALID,23.7225,VALID,38,VALID,0.589063,
2009-05-23, 00:57:05,VALID,1000.01,VALID,0,VALID,91.9598,VALID,0,VALID,23.7207,VALID,38,VALID,0.546094,
2009-05-23, 00:58:05,VALID,999.947,VALID,0,VALID,91.9293,VALID,0,VALID,23.7207,VALID,38,VALID,0.578125,
2009-05-23, 00:59:05,VALID,999.927,VALID,0,VALID,92.0056,VALID,0,VALID,23.7012,VALID,38,VALID,0.609766,
2009-05-23, 01:00:05,VALID,999.949,VALID,0,VALID,91.8988,VALID,0,VALID,23.6817,VALID,38,VALID,0.566406,
2009-05-23, 01:01:05,VALID,999.887,VALID,0,VALID,92.1277,VALID,0,VALID,23.664,VALID,38,VALID,0.419141,
2009-05-23, 01:02:05,VALID,999.889,VALID,0,VALID,92.1582,VALID,0,VALID,23.6232,VALID,38,VALID,0.454688,
2009-05-23, 01:03:05,VALID,999.889,VALID,0,VALID,92.3642,VALID,0,VALID,23.6445,VALID,38,VALID,0.451562,
2009-05-23, 01:04:05,VALID,999.877,VALID,0,VALID,92.2497,VALID,0,VALID,23.6036,VALID,38,VALID,0.360156,
2009-05-23, 01:05:05,VALID,999.841,VALID,0,VALID,92.2955,VALID,0,VALID,23.6054,VALID,38,VALID,0.364844,
2009-05-23, 01:06:05,VALID,999.831,VALID,0,VALID,92.3031,VALID,0,VALID,23.6054,VALID,38,VALID,0.402734,
2009-05-23, 01:07:05,VALID,999.834,VALID,0,VALID,92.3108,VALID,0,VALID,23.5646,VALID,38,VALID,0.432031,
2009-05-23, 01:08:05,VALID,999.816,VALID,0,VALID,92.5397,VALID,0,VALID,23.5841,VALID,90,VALID,0.597656,
2009-05-23, 01:09:05,VALID,999.817,VALID,0,VALID,92.3871,VALID,0,VALID,23.5841,VALID,114,VALID,0.641016,
2009-05-23, 01:10:05,VALID,999.77,VALID,0,VALID,92.4023,VALID,0,VALID,23.5841,VALID,109,VALID,0.579687,
2009-05-23, 01:11:05,VALID,999.806,VALID,0,VALID,92.3718,VALID,0,VALID,23.5646,VALID,110,VALID,0.828516,
2009-05-23, 01:12:05,VALID,999.772,VALID,0,VALID,92.3184,VALID,0,VALID,23.5646,VALID,111,VALID,0.814062,
2009-05-23, 01:13:05,VALID,999.787,VALID,0,VALID,92.1811,VALID,0,VALID,23.5841,VALID,113,VALID,0.625781,
2009-05-23, 01:14:05,VALID,999.776,VALID,0,VALID,92.2726,VALID,0,VALID,23.625,VALID,113,VALID,0.657031,
2009-05-23, 01:15:05,VALID,999.763,VALID,0,VALID,92.2345,VALID,0,VALID,23.5841,VALID,113,VALID,0.337891,
2009-05-23, 01:16:05,VALID,999.781,VALID,0,VALID,92.1506,VALID,0,VALID,23.6036,VALID,129,VALID,0.504687,
2009-05-23, 01:17:05,VALID,999.738,VALID,0,VALID,92.0666,VALID,0,VALID,23.5841,VALID,133,VALID,0.197266,
2009-05-23, 01:18:05,VALID,999.769,VALID,0,VALID,91.9598,VALID,0,VALID,23.5841,VALID,133,VALID,0,
2009-05-23, 01:19:05,VALID,999.769,VALID,0,VALID,92.0514,VALID,0,VALID,23.5451,VALID,133,VALID,0,
2009-05-23, 01:20:05,VALID,999.75,VALID,0,VALID,92.1658,VALID,0,VALID,23.5451,VALID,133,VALID,0,
2009-05-23, 01:21:05,VALID,999.765,VALID,0,VALID,92.1963,VALID,0,VALID,23.5256,VALID,133,VALID,0,
2009-05-23, 01:22:04,VALID,999.727,VALID,0,VALID,92.2879,VALID,0,VALID,23.5274,VALID,133,VALID,0,
2009-05-23, 01:23:04,VALID,999.732,VALID,0,VALID,92.3871,VALID,0,VALID,23.5079,VALID,133,VALID,0.363281,
2009-05-23, 01:24:04,VALID,999.718,VALID,0,VALID,92.3871,VALID,0,VALID,23.4671,VALID,145,VALID,0.366016,
2009-05-23, 01:25:04,VALID,999.733,VALID,0,VALID,92.0285,VALID,0,VALID,23.4884,VALID,154,VALID,0.722656,
2009-05-23, 01:26:04,VALID,999.725,VALID,0,VALID,91.7843,VALID,0,VALID,23.4866,VALID,155,VALID,0.602344,
2009-05-23, 01:27:04,VALID,999.721,VALID,0,VALID,91.2274,VALID,0,VALID,23.5469,VALID,125,VALID,0.830859,
2009-05-23, 01:28:04,VALID,999.741,VALID,0,VALID,90.3347,VALID,0,VALID,23.6054,VALID,138,VALID,1.18984,
2009-05-23, 01:29:04,VALID,999.697,VALID,0,VALID,89.8235,VALID,0,VALID,23.664,VALID,127,VALID,1.00898,
2009-05-23, 01:30:04,VALID,999.693,VALID,0,VALID,89.4878,VALID,0,VALID,23.6835,VALID,134,VALID,1.16133,
2009-05-23, 01:31:04,VALID,999.691,VALID,0,VALID,89.3276,VALID,0,VALID,23.7012,VALID,136,VALID,0.933203,
2009-05-23, 01:32:04,VALID,999.652,VALID,0,VALID,89.236,VALID,0,VALID,23.7012,VALID,133,VALID,0.912109,
2009-05-23, 01:33:04,VALID,999.644,VALID,0,VALID,89.2513,VALID,0,VALID,23.7012,VALID,130,VALID,0.80625,
2009-05-23, 01:34:04,VALID,999.654,VALID,0,VALID,89.2971,VALID,0,VALID,23.7225,VALID,127,VALID,0.726953,
2009-05-23, 01:35:04,VALID,999.675,VALID,0,VALID,89.1597,VALID,0,VALID,23.6817,VALID,115,VALID,0.716797,
2009-05-23, 01:36:04,VALID,999.66,VALID,0,VALID,89.1979,VALID,0,VALID,23.6835,VALID,114,VALID,0.363281,
2009-05-23, 01:37:04,VALID,999.638,VALID,0,VALID,89.4039,VALID,0,VALID,23.6427,VALID,114,VALID,0.402734,
2009-05-23, 01:38:04,VALID,999.598,VALID,0,VALID,89.526,VALID,0,VALID,23.6445,VALID,114,VALID,0.409766,
2009-05-23, 01:39:04,VALID,999.572,VALID,0,VALID,89.5412,VALID,0,VALID,23.6445,VALID,114,VALID,0.148828,
2009-05-23, 01:40:04,VALID,999.572,VALID,0,VALID,89.5107,VALID,0,VALID,23.6054,VALID,114,VALID,0.0195313,
2009-05-23, 01:41:04,VALID,999.526,VALID,0,VALID,89.6709,VALID,0,VALID,23.6054,VALID,114,VALID,0,
2009-05-23, 01:42:04,VALID,999.533,VALID,0,VALID,89.6862,VALID,0,VALID,23.5859,VALID,114,VALID,0,
2009-05-23, 01:43:04,VALID,999.484,VALID,0,VALID,89.7014,VALID,0,VALID,23.5841,VALID,115,VALID,0.203516,
2009-05-23, 01:44:04,VALID,999.486,VALID,0,VALID,89.6023,VALID,0,VALID,23.625,VALID,117,VALID,0.201562,
2009-05-23, 01:45:04,VALID,999.454,VALID,0,VALID,89.5031,VALID,0,VALID,23.625,VALID,117,VALID,0.3125,
2009-05-23, 01:46:04,VALID,999.468,VALID,0,VALID,89.381,VALID,0,VALID,23.6427,VALID,125,VALID,0.435156,
2009-05-23, 01:47:04,VALID,999.463,VALID,0,VALID,89.1826,VALID,0,VALID,23.6622,VALID,145,VALID,0.4125,
2009-05-23, 01:48:04,VALID,999.477,VALID,0,VALID,89.0453,VALID,0,VALID,23.6622,VALID,160,VALID,0.867188,
2009-05-23, 01:49:04,VALID,999.472,VALID,0,VALID,88.9385,VALID,0,VALID,23.6835,VALID,150,VALID,0.825,
2009-05-23, 01:50:04,VALID,999.452,VALID,0,VALID,88.7554,VALID,0,VALID,23.703,VALID,156,VALID,0.705859,
2009-05-23, 01:51:04,VALID,999.459,VALID,0,VALID,88.7477,VALID,0,VALID,23.7225,VALID,153,VALID,0.831641,
2009-05-23, 01:52:04,VALID,999.481,VALID,0,VALID,88.5799,VALID,0,VALID,23.7207,VALID,159,VALID,1.08633,
2009-05-23, 01:53:04,VALID,999.409,VALID,0,VALID,88.4502,VALID,0,VALID,23.742,VALID,150,VALID,0.950781,
2009-05-23, 01:54:04,VALID,999.401,VALID,0,VALID,88.145,VALID,0,VALID,23.7616,VALID,151,VALID,1.20703,
2009-05-23, 01:55:04,VALID,999.375,VALID,0,VALID,87.8474,VALID,0,VALID,23.7811,VALID,161,VALID,1.35469,
2009-05-23, 01:56:04,VALID,999.339,VALID,0,VALID,87.5346,VALID,0,VALID,23.8201,VALID,165,VALID,1.41719,
2009-05-23, 01:57:04,VALID,999.343,VALID,0,VALID,86.8251,VALID,0,VALID,23.8591,VALID,166,VALID,1.52695,
2009-05-23, 01:58:04,VALID,999.337,VALID,0,VALID,86.9777,VALID,0,VALID,23.8768,VALID,159,VALID,1.14922,
2009-05-23, 01:59:04,VALID,999.325,VALID,0,VALID,86.4817,VALID,0,VALID,23.8963,VALID,164,VALID,1.16797,
2009-05-23, 02:00:04,VALID,999.344,VALID,0,VALID,86.4589,VALID,0,VALID,23.8963,VALID,166,VALID,1.0375,
2009-05-23, 02:01:04,VALID,999.37,VALID,0,VALID,86.024,VALID,0,VALID,23.9177,VALID,165,VALID,1.06562,
2009-05-23, 02:02:04,VALID,999.343,VALID,0,VALID,85.7264,VALID,0,VALID,23.9372,VALID,155,VALID,1.29258,
2009-05-23, 02:03:04,VALID,999.355,VALID,0,VALID,85.5891,VALID,0,VALID,23.9762,VALID,154,VALID,0.903906,
2009-05-23, 02:04:04,VALID,999.323,VALID,0,VALID,85.9172,VALID,0,VALID,23.9549,VALID,157,VALID,0.954687,
2009-05-23, 02:05:04,VALID,999.346,VALID,0,VALID,86.2071,VALID,0,VALID,23.9372,VALID,148,VALID,0.744531,
2009-05-23, 02:06:04,VALID,999.326,VALID,0,VALID,86.4512,VALID,0,VALID,23.8982,VALID,149,VALID,0.803516,
2009-05-23, 02:07:04,VALID,999.321,VALID,0,VALID,86.848,VALID,0,VALID,23.8396,VALID,149,VALID,0.891406,
2009-05-23, 02:08:04,VALID,999.324,VALID,0,VALID,87.2218,VALID,0,VALID,23.8006,VALID,148,VALID,0.765234,
2009-05-23, 02:09:04,VALID,999.338,VALID,0,VALID,87.8093,VALID,0,VALID,23.7402,VALID,146,VALID,0.738672,
2009-05-23, 02:10:04,VALID,999.335,VALID,0,VALID,88.1145,VALID,0,VALID,23.7012,VALID,145,VALID,0.7125,
2009-05-23, 02:11:04,VALID,999.316,VALID,0,VALID,88.4654,VALID,0,VALID,23.6835,VALID,138,VALID,0.834375,
2009-05-23, 02:12:04,VALID,999.355,VALID,0,VALID,88.5494,VALID,0,VALID,23.6232,VALID,137,VALID,0.739453,
2009-05-23, 02:13:04,VALID,999.346,VALID,0,VALID,88.763,VALID,0,VALID,23.6054,VALID,137,VALID,0.605078,
2009-05-23, 02:14:04,VALID,999.373,VALID,0,VALID,88.763,VALID,0,VALID,23.5664,VALID,136,VALID,0.432813,
2009-05-23, 02:15:04,VALID,999.391,VALID,0,VALID,88.8774,VALID,0,VALID,23.5256,VALID,133,VALID,0.434375,
2009-05-23, 02:16:04,VALID,999.372,VALID,0,VALID,88.8774,VALID,0,VALID,23.4866,VALID,133,VALID,0.338281,
2009-05-23, 02:17:04,VALID,999.36,VALID,0,VALID,88.7859,VALID,0,VALID,23.4671,VALID,133,VALID,0.122266,
2009-05-23, 02:18:04,VALID,999.341,VALID,0,VALID,88.8088,VALID,0,VALID,23.4884,VALID,133,VALID,0,
2009-05-23, 02:19:04,VALID,999.356,VALID,0,VALID,88.9461,VALID,0,VALID,23.4671,VALID,133,VALID,0,
2009-05-23, 02:20:04,VALID,999.308,VALID,0,VALID,88.9919,VALID,0,VALID,23.4688,VALID,133,VALID,0,
2009-05-23, 02:21:04,VALID,999.328,VALID,0,VALID,89.0606,VALID,0,VALID,23.4493,VALID,133,VALID,0,
2009-05-23, 02:22:04,VALID,999.333,VALID,0,VALID,89.1597,VALID,0,VALID,23.4298,VALID,133,VALID,0,
2009-05-23, 02:23:04,VALID,999.348,VALID,0,VALID,89.1521,VALID,0,VALID,23.4103,VALID,133,VALID,0,
2009-05-23, 02:24:04,VALID,999.382,VALID,0,VALID,89.1979,VALID,0,VALID,23.3713,VALID,133,VALID,0,
2009-05-23, 02:25:04,VALID,999.357,VALID,0,VALID,89.1826,VALID,0,VALID,23.3305,VALID,133,VALID,0,
2009-05-23, 02:26:04,VALID,999.347,VALID,0,VALID,89.2132,VALID,0,VALID,23.311,VALID,133,VALID,0,
2009-05-23, 02:27:04,VALID,999.359,VALID,0,VALID,89.5641,VALID,0,VALID,23.2915,VALID,133,VALID,0,
2009-05-23, 02:28:04,VALID,999.339,VALID,0,VALID,89.6862,VALID,0,VALID,23.3127,VALID,133,VALID,0,
2009-05-23, 02:29:04,VALID,999.339,VALID,0,VALID,89.7472,VALID,0,VALID,23.311,VALID,133,VALID,0,
2009-05-23, 02:30:04,VALID,999.291,VALID,0,VALID,89.6633,VALID,0,VALID,23.311,VALID,133,VALID,0,
2009-05-23, 02:31:04,VALID,999.291,VALID,0,VALID,89.3963,VALID,0,VALID,23.3518,VALID,133,VALID,0,
2009-05-23, 02:32:04,VALID,999.279,VALID,0,VALID,89.2208,VALID,0,VALID,23.3713,VALID,133,VALID,0,
2009-05-23, 02:33:04,VALID,999.25,VALID,0,VALID,89.03,VALID,0,VALID,23.3695,VALID,133,VALID,0,
2009-05-23, 02:34:04,VALID,999.276,VALID,0,VALID,89.0453,VALID,0,VALID,23.35,VALID,133,VALID,0,
2009-05-23, 02:35:04,VALID,999.268,VALID,0,VALID,89.1292,VALID,0,VALID,23.3305,VALID,133,VALID,0,
2009-05-23, 02:36:04,VALID,999.247,VALID,0,VALID,89.3123,VALID,0,VALID,23.311,VALID,133,VALID,0,
2009-05-23, 02:37:04,VALID,999.223,VALID,0,VALID,89.1292,VALID,0,VALID,23.2932,VALID,140,VALID,0.46875,
2009-05-23, 02:38:04,VALID,999.209,VALID,0,VALID,89.1216,VALID,0,VALID,23.2524,VALID,144,VALID,0.314844,
2009-05-23, 02:39:04,VALID,999.209,VALID,0,VALID,88.5265,VALID,0,VALID,23.2524,VALID,149,VALID,0.814062,
2009-05-23, 02:40:04,VALID,999.191,VALID,0,VALID,88.3357,VALID,0,VALID,23.311,VALID,149,VALID,0.833594,
2009-05-23, 02:41:04,VALID,999.196,VALID,0,VALID,87.6567,VALID,0,VALID,23.3695,VALID,148,VALID,0.739453,
2009-05-23, 02:42:04,VALID,999.232,VALID,0,VALID,87.4049,VALID,0.112286,VALID,23.4475,VALID,148,VALID,0.80625,
2009-05-23, 02:43:04,VALID,999.192,VALID,0,VALID,87.1455,VALID,0,VALID,23.5256,VALID,147,VALID,0.693359,
2009-05-23, 02:44:04,VALID,999.169,VALID,0,VALID,87.176,VALID,0,VALID,23.5646,VALID,141,VALID,0.765625,
2009-05-23, 02:45:04,VALID,999.188,VALID,0,VALID,87.2142,VALID,0,VALID,23.6036,VALID,138,VALID,0.871094,
2009-05-23, 02:46:04,VALID,999.184,VALID,0,VALID,87.4431,VALID,0,VALID,23.6036,VALID,133,VALID,0.798828,
2009-05-23, 02:47:04,VALID,999.165,VALID,0,VALID,87.3668,VALID,0,VALID,23.6054,VALID,132,VALID,0.800391,
2009-05-23, 02:48:04,VALID,999.123,VALID,0,VALID,87.8856,VALID,0,VALID,23.5646,VALID,132,VALID,0.625391,
2009-05-23, 02:49:04,VALID,999.112,VALID,0,VALID,88.0763,VALID,0,VALID,23.5061,VALID,130,VALID,0.635156,
2009-05-23, 02:50:04,VALID,999.057,VALID,0,VALID,88.4197,VALID,0,VALID,23.4671,VALID,130,VALID,0.473828,
2009-05-23, 02:51:04,VALID,999.068,VALID,0,VALID,88.5875,VALID,0.112286,VALID,23.4475,VALID,130,VALID,0.471875,
2009-05-23, 02:52:04,VALID,999.072,VALID,0,VALID,88.6409,VALID,0,VALID,23.4085,VALID,130,VALID,0.473047,
2009-05-23, 02:53:04,VALID,999.023,VALID,0,VALID,88.7554,VALID,0,VALID,23.389,VALID,130,VALID,0.457422,
2009-05-23, 02:54:04,VALID,999.019,VALID,0,VALID,88.618,VALID,0,VALID,23.3695,VALID,130,VALID,0.446875,
2009-05-23, 02:55:04,VALID,999.05,VALID,0,VALID,88.7172,VALID,0,VALID,23.3695,VALID,130,VALID,0.428906,
2009-05-23, 02:56:04,VALID,999.009,VALID,0,VALID,89.0071,VALID,0,VALID,23.35,VALID,127,VALID,0.508984,
2009-05-23, 02:57:04,VALID,999.023,VALID,0,VALID,89.4573,VALID,0,VALID,23.311,VALID,126,VALID,0.520703,
2009-05-23, 02:58:04,VALID,999.028,VALID,0,VALID,89.7243,VALID,0.112286,VALID,23.2915,VALID,112,VALID,0.692969,
2009-05-23, 02:59:04,VALID,999.039,VALID,0,VALID,89.6251,VALID,0,VALID,23.2524,VALID,103,VALID,0.973047,
2009-05-23, 03:00:04,VALID,999.042,VALID,0,VALID,89.6404,VALID,0,VALID,23.2134,VALID,91,VALID,0.657422,
2009-05-23, 03:01:04,VALID,999.051,VALID,0,VALID,89.8006,VALID,0,VALID,23.1744,VALID,92,VALID,0.611719,
2009-05-23, 03:02:04,VALID,999.04,VALID,0,VALID,89.938,VALID,0.112286,VALID,23.1354,VALID,104,VALID,0.905078,
2009-05-23, 03:03:04,VALID,999.079,VALID,0,VALID,89.9456,VALID,0,VALID,23.1159,VALID,102,VALID,0.759375,
2009-05-23, 03:04:04,VALID,999.054,VALID,0,VALID,89.9914,VALID,0.112286,VALID,23.0964,VALID,101,VALID,0.430078,
2009-05-23, 03:05:04,VALID,999.068,VALID,0,VALID,90.0753,VALID,0,VALID,23.0769,VALID,100,VALID,0.551172,
2009-05-23, 03:06:04,VALID,999.069,VALID,0,VALID,90.1516,VALID,0,VALID,23.0573,VALID,100,VALID,0.980859,
2009-05-23, 03:07:04,VALID,999.092,VALID,0,VALID,90.1058,VALID,0,VALID,23.0378,VALID,99,VALID,0.962891,
2009-05-23, 03:08:04,VALID,999.049,VALID,0,VALID,90.0524,VALID,0,VALID,23.0378,VALID,96,VALID,0.873047,
2009-05-23, 03:09:04,VALID,999.068,VALID,0,VALID,89.9532,VALID,0,VALID,23.0183,VALID,91,VALID,0.846094,
2009-05-23, 03:10:04,VALID,999.047,VALID,0,VALID,89.8846,VALID,0,VALID,23.0183,VALID,91,VALID,0.855469,
2009-05-23, 03:11:04,VALID,999.026,VALID,0,VALID,89.8464,VALID,0,VALID,23.0183,VALID,92,VALID,0.725391,
2009-05-23, 03:12:04,VALID,999.037,VALID,0,VALID,89.7854,VALID,0,VALID,22.9988,VALID,92,VALID,0.627344,
2009-05-23, 03:13:04,VALID,999.026,VALID,0,VALID,89.9151,VALID,0,VALID,23.0006,VALID,106,VALID,0.407031,
2009-05-23, 03:14:04,VALID,999.02,VALID,0,VALID,89.9914,VALID,0,VALID,22.9793,VALID,116,VALID,0.585938,
2009-05-23, 03:15:04,VALID,999.054,VALID,0,VALID,90.0448,VALID,0,VALID,22.9598,VALID,116,VALID,0.443359,
2009-05-23, 03:16:04,VALID,999.024,VALID,0,VALID,90.266,VALID,0,VALID,22.9598,VALID,116,VALID,0.298438,
2009-05-23, 03:17:04,VALID,999.042,VALID,0,VALID,90.3194,VALID,0,VALID,22.9403,VALID,116,VALID,0.445703,
2009-05-23, 03:18:04,VALID,999.001,VALID,0,VALID,90.2966,VALID,0,VALID,22.9598,VALID,116,VALID,0.401563,
2009-05-23, 03:19:04,VALID,999.018,VALID,0,VALID,90.1668,VALID,0,VALID,22.9598,VALID,116,VALID,0.501562,
2009-05-23, 03:20:04,VALID,999.036,VALID,0,VALID,90.0524,VALID,0,VALID,23.0006,VALID,116,VALID,0.507813,
2009-05-23, 03:21:04,VALID,999.007,VALID,0,VALID,89.9074,VALID,0,VALID,22.9988,VALID,114,VALID,0.633203,
2009-05-23, 03:22:04,VALID,998.988,VALID,0,VALID,89.8693,VALID,0,VALID,23.0183,VALID,110,VALID,0.544141,
2009-05-23, 03:23:04,VALID,998.965,VALID,0,VALID,89.7701,VALID,0,VALID,23.0183,VALID,107,VALID,0.646875,
2009-05-23, 03:24:04,VALID,998.984,VALID,0,VALID,89.6175,VALID,0,VALID,23.0573,VALID,100,VALID,0.635156,
2009-05-23, 03:25:04,VALID,998.952,VALID,0,VALID,89.5107,VALID,0,VALID,23.0378,VALID,100,VALID,0.584375,
2009-05-23, 03:26:04,VALID,998.962,VALID,0,VALID,89.4573,VALID,0.112286,VALID,23.0378,VALID,100,VALID,0.545703,
2009-05-23, 03:27:04,VALID,998.939,VALID,0,VALID,89.4802,VALID,0,VALID,23.0573,VALID,100,VALID,0.431641,
2009-05-23, 03:28:04,VALID,998.973,VALID,0,VALID,89.5031,VALID,0,VALID,23.0378,VALID,100,VALID,0.264453,
2009-05-23, 03:29:04,VALID,998.974,VALID,0,VALID,89.5489,VALID,0,VALID,23.0396,VALID,100,VALID,0.312109,
2009-05-23, 03:30:04,VALID,998.97,VALID,0,VALID,89.648,VALID,0,VALID,23.0183,VALID,103,VALID,0.246094,
2009-05-23, 03:31:04,VALID,998.952,VALID,0,VALID,89.7472,VALID,0,VALID,23.0183,VALID,103,VALID,0.351563,
2009-05-23, 03:32:04,VALID,998.974,VALID,0,VALID,89.7854,VALID,0,VALID,22.9988,VALID,103,VALID,0.246094,
2009-05-23, 03:33:04,VALID,998.998,VALID,0,VALID,89.8159,VALID,0.112286,VALID,23.0006,VALID,103,VALID,0.344531,
2009-05-23, 03:34:04,VALID,999.014,VALID,0,VALID,89.8388,VALID,0,VALID,22.9598,VALID,97,VALID,0.588672,
2009-05-23, 03:35:04,VALID,999.003,VALID,0,VALID,89.7167,VALID,0,VALID,22.9598,VALID,78,VALID,0.607422,
2009-05-23, 03:36:04,VALID,999.003,VALID,0,VALID,89.6557,VALID,0,VALID,22.9793,VALID,77,VALID,0.628516,
2009-05-23, 03:37:04,VALID,999.016,VALID,0,VALID,89.5031,VALID,0,VALID,22.9598,VALID,72,VALID,0.433203,
2009-05-23, 03:38:04,VALID,999.004,VALID,0,VALID,89.6404,VALID,0,VALID,22.9598,VALID,72,VALID,0.426953,
2009-05-23, 03:39:04,VALID,999.018,VALID,0,VALID,89.8388,VALID,0,VALID,22.9208,VALID,72,VALID,0.310547,
2009-05-23, 03:40:04,VALID,999.041,VALID,0,VALID,90.0295,VALID,0,VALID,22.903,VALID,72,VALID,0.251172,
2009-05-23, 03:41:04,VALID,999.064,VALID,0,VALID,90.1668,VALID,0,VALID,22.8623,VALID,72,VALID,0.150781,
2009-05-23, 03:42:04,VALID,999.061,VALID,0,VALID,90.2431,VALID,0,VALID,22.8427,VALID,72,VALID,0.0496094,
2009-05-23, 03:43:04,VALID,999.102,VALID,0,VALID,90.4491,VALID,0,VALID,22.8232,VALID,72,VALID,0.00273437,
2009-05-23, 03:44:04,VALID,999.11,VALID,0,VALID,90.7314,VALID,0,VALID,22.8445,VALID,72,VALID,0,
2009-05-23, 03:45:04,VALID,999.096,VALID,0,VALID,90.7162,VALID,0,VALID,22.8037,VALID,72,VALID,0.0125,
2009-05-23, 03:46:04,VALID,999.143,VALID,0,VALID,90.7696,VALID,0,VALID,22.7647,VALID,72,VALID,0.287891,